ELECTRON KICK STAGE R/B, 64692

Orbit data source: Space-Track

ELECTRON KICK STAGE R/B, 64692 is space debris in SSO originally from a launch on Sat, 28 Jun 2025 UTC launched from the Rocket Lab Launch Complex (RLLC). Debris objects in space refer to the collection of defunct objects orbiting the Earth. Examples of debris include non-operational satellites, rocket bodies, and fragments generated from explosions, collisions, or faulty payload assembly.

Loading next visibility...
Identifier
64692, 2025-140B
Orbit
SSO
Country
Flag of USUS
Related business
Manufacturer
Rocket Lab
Mission
Spacecraft
Bus & Motor
KICK STAGE, CURIE
Mass
~50 kg wet, ~50 kg dry
Launch date (UTC)
2025-06-28 (1 year ago)
Launch vehicle
Unknown
Launch site
Rocket Lab Launch Complex (RLLC)
Object type
Payload
Rocket body
Debris
Shape & HBR
Trunc Cone, 0.7 m
Radar Cross Section
0.760 m², Medium (>0.1 m² and < 1m²)

Expand to show TLE details & history
Last TLE update: 12 hours ago

TLE from 12 hours ago
0 ELECTRON KICK STAGE R/B
1 64692U 25140B   26171.35080692  .00001257  00000-0  19722-3 0  9998
2 64692  96.0076 291.3051 0014086 178.0012 182.1260 14.73618996 52557
Epoch: 2026-06-20T08:25Z
TLE epoch observation values (Epoch: 2026-06-20T08:25:09.717Z)
Latitude
-0.00006°
Longitude
-103.55206°
Altitude
662.496 km
Speed
7.521 km/s
True Right ascension
19h 25m 13s
True Declination
0° 00' 00"
Sunlit
Object was in full shadow at epoch
Visualization orbit readout
Latitude
Unknown
Longitude
Unknown
Altitude
Unknown
Speed
Unknown
Apparent Right ascension
Unknown
Apparent Declination
Unknown
Sunlit
N/A
Visualization observer readout
Local Sidereal Time
07:19:21
Azimuth
Unknown
Elevation
Unknown
Doppler factor
Unknown
Orbital elements
Apogee altitude
656.408 km
Perigee altitude
636.618 km
Semi-major axis
7,024.65 km
Eccentricity
0.00141
Inclination
96.0076°
RAAN
291.3051°
Arg. of periapsis
178.0012°
True anomaly
182.12002°
Mean anomaly
182.126°
Eccentric anomaly
182.12301°
Mean motion
3.68643 °/min
Orbital period
97.66 mins
BSTAR
0.00019722
Loading maneuver chart data...
Computing Atmospheric mass density...
Loading historical data...
Loading historical data...
Loading historical data...
Loading historical data...
Loading historical data...
Loading historical data...
Loading historical data...
Other satellites on launch #140 in the year 2025 (2025-06-28 UTC)

Documentation

Showing up to 5 results
|